Current Version              Previous Version:    01  02  03  04  05  06  07  08  09  10  11  12  13  14  15  16  17  18  19  20  21  22  23  24  25  26  27  28  29  30  
   31  32  33  34  35  36  37  38  39  40  41  42  43  44  45  46  47  48  49  50  51  52  53  54  55  56  57  58  59  60  

[Printable]
543
ASUS44 KFWD 281410
RWRTX
NORTH TEXAS HOURLY WEATHER ROUNDUP
NATIONAL WEATHER SERVICE FORT WORTH TX
900 AM CDT MON JUL 28 2014

NOTE: "FAIR" INDICATES FEW OR NO CLOUDS BELOW 12,000 FEET WITH NO
SIGNIFICANT WEATHER AND/OR OBSTRUCTIONS TO VISIBILITY.

TXZ118-119-281500-
DALLAS/FORT WORTH METROPLEX

CITY           SKY/WX    TMP DP  RH WIND       PRES   REMARKS
DFW AIRPORT    PTSUNNY   86  71  60 N10       30.12R HX  91
DALLAS LOVE    PTSUNNY   86  74  67 NE3       30.11R HX  94
FTW MEACHAM    SUNNY     87  70  56 NE8       30.12R HX  92
DAL-EXECUTIVE  MOSUNNY   87  71  58 NW7       30.11R HX  93
FTW-ALLIANCE   PTSUNNY   84  71  65 N10       30.13R
FTW-NAS-JRB    MOSUNNY   88  69  53 NE10      30.17R HX  92
FTW-SPINKS     PTSUNNY   86  70  58 CALM      30.15R HX  90
ARLINGTON      PTSUNNY   86  72  62 N9        30.12R HX  92
ADDISON        MOSUNNY   84  73  70 N7        30.13R HX  91
MESQUITE       MOSUNNY   82  72  69 CALM      30.11R
LANCASTER      PTSUNNY   85  70  61 W3        30.12R
$$

TXZ091>094-102>105-117-120-121-131>134-281500-
NORTH CENTRAL TEXAS

CITY           SKY/WX    TMP DP  RH WIND       PRES   REMARKS
SHRMAN/DENISON MOSUNNY   81  66  61 N10       30.16R
GAINESVILLE    PTSUNNY   80  67  63 N10       30.17R
BOWIE          LGT RAIN  76  72  88 N5        30.18R
BRIDGEPORT     PTSUNNY   80  67  64 N7        30.17R
DECATUR        PTSUNNY   79  69  70 N6        30.17R
DENTON         PTSUNNY   82  66  58 N13       30.13R
MCKINNEY       MOSUNNY   82  71  69 N10       30.12R
GREENVILLE     MOSUNNY   82  72  69 N9        30.12R
ROCKWALL       MOSUNNY   83  75  78 N3        30.11R HX  90
TERRELL        MOSUNNY   88  74  63 W5        30.11R HX  96
WAXAHACHIE     SUNNY     85  68  56 W5        30.13R
CLEBURNE       SUNNY     84  72  65 NE6       30.15R
GRANBURY       SUNNY     85  69  57 N5        30.15R
$$

TXZ083>090-098>101-113>116-127>130-139>142-154-155-281500-
WESTERN NORTH TEXAS

CITY           SKY/WX    TMP DP  RH WIND       PRES   REMARKS
WICHITA FALLS  LGT RAIN  74  71  91 NE14      30.18R
WF-KICKAPOO    CLOUDY    75  73  95 N8        30.20R
VERNON         CLOUDY    77  61  58 NE13G20   30.21R
ABILENE        SUNNY     83  68  60 SW9       30.17R
ABILENE-DYESS  PTSUNNY   82  67  60 SW3       30.16R
BRECKENRIDGE   MOSUNNY   84  66  54 MISG      30.15R
GRAHAM         PTSUNNY   83  67  58 E10       30.14R
MINERAL WELLS  MOSUNNY   86  69  56 E5        30.13R HX  90
STEPHENVILLE   MOSUNNY   81  67  62 SW6       30.16R
COMANCHE       SUNNY     84  68  59 W6        30.15R
BROWNWOOD      SUNNY     81  68  65 CALM      30.15R
COLEMAN        SUNNY     80  68  66 CALM      30.17R
BRADY          SUNNY     81  70  69 S7        30.15R
$$

TXZ143>147-156>162-174-175-281500-
CENTRAL TEXAS

CITY           SKY/WX    TMP DP  RH WIND       PRES   REMARKS
WACO           SUNNY     83  70  64 SW3       30.11R
WACO-TSTC      SUNNY     81  72  74 S5        30.12R
WACO-MCGREGOR  SUNNY     82  68  61 SW7       30.13R
HILLSBORO      MOSUNNY   83  69  62 SW5       30.12R
CORSICANA      SUNNY     83  71  67 SW8       30.12R
MEXIA          SUNNY     80  72  78 SW8       30.11R
HEARNE         CLOUDY   N/A N/A N/A S8        30.13R
CAMERON        CLOUDY    80  74  81 SW10G20   30.12R
TEMPLE         SUNNY     81  68  65 S10       30.12R
KILLEEN        MOSUNNY   81  70  69 S10       30.12R
KILLEEN-SKYLRK SUNNY     82  66  57 S10       30.12R
FORT HOOD      SUNNY     84  70  62 S5        30.12R
GATESVILLE     SUNNY     84  68  58 SW7       30.14R
HAMILTON       SUNNY     82  68  62 SW3       30.15R
LAMPASAS       SUNNY     81  71  71 S6        30.13R
$$

TXZ095>097-106>112-122>126-135>138-148>153-164>167-281500-
EAST TEXAS

CITY           SKY/WX    TMP DP  RH WIND       PRES   REMARKS
PARIS          PTSUNNY   79  70  73 NE9       30.14R
SULPHUR SPRNGS PTSUNNY   83  73  72 W5        30.13R
CLARKSVILLE    PTSUNNY   83  73  71 NE5       30.13R HX  90
MOUNT PLEASANT PTSUNNY   84  73  70 E3        30.12R HX  90
GILMER         MOSUNNY   82  75  78 SE5       30.12R
MINEOLA        MOSUNNY   82  75  78 SW5       30.11R
TYLER          MOSUNNY   80  73  79 CALM      30.13R
LONGVIEW       PTSUNNY   81  73  76 CALM      30.11R
MARSHALL       PTSUNNY   80  77  90 CALM      30.13S
ATHENS         CLOUDY    77  72  83 CALM      30.11R
JACKSONVILLE   PTSUNNY   81  72  75 SW7       30.14R
HENDERSON      CLOUDY    79  75  87 CALM      30.13R
NACOGDOCHES    SUNNY     81  75  83 W5        30.12R
LUFKIN         MOSUNNY   84  75  74 SW6       30.11R HX  92
$$

SUPPLEMENTAL OBSERVATIONS (CENTRAL)

CITY           SKY/WX    TMP DP  RH WIND       PRES   REMARKS
PAT MAYSE LAKE   N/A     81  70  69 N6          N/A
GREENVILLE       N/A     81  75  83 VRB9        N/A
CEDAR HILL       N/A     88  72  58 NW3         N/A  HX  94
PALESTINE        N/A     84  73  70 SW1         N/A  HX  91
MCGREGOR         N/A     84  70  61 SW5         N/A
TEMPLE           N/A     82  72  69 S6          N/A
$$

SUPPLEMENTAL OBSERVATIONS (WEST)

CITY           SKY/WX    TMP DP  RH WIND       PRES   REMARKS
MILLERS CREEK    N/A     82  68  61 E12         N/A
POSSUM KINGDOM   N/A     84  66  54 NE9         N/A
GRANBURY         N/A     84  66  54 NE7         N/A
HAMBY            N/A     84  66  54 SW7         N/A
COLORADO BEND    N/A     82  66  57 S6          N/A
$$

SUPPLEMENTAL OBSERVATIONS (EAST)

CITY           SKY/WX    TMP DP  RH WIND       PRES   REMARKS
TEXARKANA        N/A     82  70  65 E5          N/A
LINDEN           N/A     84  75  74 E3          N/A  HX  92
LUFKIN           N/A     81  79  94 MISG        N/A
$$

SUPPLEMENTAL OBSERVATIONS ARE A COLLECTION OF AUTOMATED INSTRUMENTS
THAT ARE MAINTAINED BY A VARIETY OF FEDERAL AND STATE AGENCIES.
CERTAIN ELEMENTS...SUCH AS HUMIDITY VALUES AND SUSTAINED WIND
SPEEDS...MAY BE APPROXIMATED.